Flag for Dominica Weather past 2 weeks in Roseau, Dominica

Now
86 °F

Scattered clouds.


Feels Like: 92 °F
Forecast: 79 / 82 °F
Wind: 5 mph from North

Location: Canefield Airport


UV Index: 10 (Very high)

Visibility: N/A


Pressure: 29.98 "Hg

Humidity: 62%

Dew point: 72 °F

Location of RoseauLocation

Historic Weather in Roseau

°F

Roseau temperature yesterday

Maximum temperature yesterday: 88 °F (at 12:00 PM)
Minimum temperature yesterday: 73 °F (at 6:00 AM)
Average temperature yesterday: 83 °F

Past Weeks' High & Low Weather Summary

 TemperatureHumidityPressure
High88 °F (Apr 8, 11:00 AM)89% (Apr 17, 12:00 PM)30.09 "Hg (Apr 17, 12:00 PM)
Low72 °F (Apr 12, 6:00 AM)35% (Apr 10, 3:00 PM)29.83 "Hg (Apr 15, 4:00 PM)
Average81 °F61%29.97 "Hg
* Reported Apr 8 11:00 AM — Apr 23 11:00 AM, Roseau, Weather by CustomWeather, © 2014

Note: Actual official high and low records may vary slightly from our data, if they occured in-between our weather recording intervals... More about our weather records

Advertising

Historic Weather Conditions — Data for Previous 24 hours

 ConditionsComfort  
Time TempWeatherWind HumidityBarometerVisibility
11:00 AM
Apr 23
86 °FScattered clouds.5 mph62%29.98 "HgN/A
10:00 AM84 °FScattered clouds.5 mph62%29.98 "HgN/A
9:00 AM82 °FPassing clouds.1 mph62%29.98 "HgN/A
8:00 AM82 °FPassing clouds.1 mph66%29.98 "HgN/A
7:00 AM77 °FPassing clouds.2 mph74%29.98 "HgN/A
6:00 AM73 °FPassing clouds.2 mph83%29.95 "HgN/A
8:00 PM
Apr 22
81 °FPassing clouds.1 mph62%29.92 "HgN/A
7:00 PM81 °FPassing clouds.1 mph66%29.89 "HgN/A
6:00 PM82 °FPassing clouds.2 mph55%29.89 "HgN/A
5:00 PM86 °FPassing clouds.5 mph52%29.86 "HgN/A
4:00 PM88 °FPassing clouds.3 mph49%29.86 "HgN/A
3:00 PM86 °FPassing clouds.6 mph52%29.89 "HgN/A
2:00 PM88 °FScattered clouds.6 mph49%29.89 "HgN/A
1:00 PM88 °FPassing clouds.8 mph49%29.92 "HgN/A
12:00 PM88 °FPassing clouds.9 mph52%29.92 "HgN/A
11:00 AM86 °FPassing clouds.8 mph52%29.95 "HgN/A
Weather by CustomWeather, © 2014

See weather overview